Time,TemperatureF,DewpointF,PressureIn,WindDirection,WindDirectionDegrees,WindSpeedMPH,WindSpeedGustMPH,Humidity,HourlyPrecipIn,Conditions,Clouds,dailyrainin,SoftwareType,DateUTC
2013-06-11 01:02:00,77.6,38.0,30.06,SSW,198,0.0,0.0,24,0.00,BKN,,0.00,WeatherDisplay:10.37,2013-06-11 07:02:00,
2013-06-11 02:02:00,74.5,34.3,30.08,NW,320,0.0,1.0,23,0.00,SCT,,0.00,WeatherDisplay:10.37,2013-06-11 08:02:00,
2013-06-11 03:02:00,70.1,33.6,30.10,West,268,0.0,0.0,26,0.00,SCT,,0.00,WeatherDisplay:10.37,2013-06-11 09:02:00,
2013-06-11 04:02:00,67.1,32.0,30.10,SW,227,0.0,0.0,27,0.00,FEW,,0.00,WeatherDisplay:10.37,2013-06-11 10:02:00,
2013-06-11 05:02:00,64.0,33.5,30.11,WSW,245,0.0,1.0,32,0.00,CLR,,0.00,WeatherDisplay:10.37,2013-06-11 11:02:00,
2013-06-11 07:02:00,65.2,36.1,30.16,South,170,0.0,0.0,34,0.00,FEW,,0.00,WeatherDisplay:10.37,2013-06-11 13:02:00,
2013-06-11 08:02:00,72.1,41.4,30.17,SSE,164,0.0,0.0,33,0.00,FEW,,0.00,WeatherDisplay:10.37,2013-06-11 14:02:00,
2013-06-11 09:02:00,78.3,38.5,30.16,SSE,164,0.0,0.0,24,0.00,FEW,,0.00,WeatherDisplay:10.37,2013-06-11 15:02:00,
2013-06-11 10:02:00,81.9,36.9,30.15,SE,139,0.0,0.0,20,0.00,FEW,,0.00,WeatherDisplay:10.37,2013-06-11 16:02:00,
2013-06-11 11:02:00,86.5,36.5,30.13,SSE,148,0.0,7.0,17,0.00,FEW,,0.00,WeatherDisplay:10.37,2013-06-11 17:02:00,
2013-06-11 13:02:00,92.9,32.8,30.11,SE,140,1.0,7.0,12,0.00,SCT,,0.00,WeatherDisplay:10.37,2013-06-11 19:02:00,
2013-06-11 14:02:00,97.1,33.8,30.08,SSE,152,1.0,9.0,11,0.00,SCT,,0.00,WeatherDisplay:10.37,2013-06-11 20:02:00,
2013-06-11 15:02:00,98.0,32.2,30.04,SE,125,0.0,9.0,10,0.00,FEW,,0.00,WeatherDisplay:10.37,2013-06-11 21:02:00,
2013-06-11 16:02:00,97.3,26.2,30.03,SW,219,0.0,7.0,8,0.00,FEW,,0.00,WeatherDisplay:10.37,2013-06-11 22:02:00,
2013-06-11 17:02:00,96.8,25.8,30.01,WSW,243,1.0,10.0,8,0.00,SCT,,0.00,WeatherDisplay:10.37,2013-06-11 23:02:00,
2013-06-11 18:02:00,95.0,24.5,30.00,SW,224,3.0,9.0,8,0.00,SCT,,0.00,WeatherDisplay:10.37,2013-06-12 00:02:00,
2013-06-11 19:02:00,94.0,23.7,30.00,WSW,248,1.0,7.0,8,0.00,SCT,,0.00,WeatherDisplay:10.37,2013-06-12 01:02:00,
2013-06-11 20:02:00,90.8,21.4,30.02,WSW,253,0.0,8.0,8,0.00,SCT,,0.00,WeatherDisplay:10.37,2013-06-12 02:02:00,
2013-06-11 21:02:00,82.2,24.5,30.03,NNE,23,0.0,5.0,12,0.00,SCT,,0.00,WeatherDisplay:10.37,2013-06-12 03:02:00,
2013-06-11 22:02:00,74.8,28.4,30.06,NNW,335,0.0,0.0,18,0.00,SCT,,0.00,WeatherDisplay:10.37,2013-06-12 04:02:00,
2013-06-11 23:02:00,70.4,30.8,30.09,West,276,0.0,0.0,23,0.00,SCT,,0.00,WeatherDisplay:10.37,2013-06-12 05:02:00,